TimeEST,TemperatureF,Dew PointF,Humidity,Sea Level PressureIn,VisibilityMPH,Wind Direction,Wind SpeedMPH,Gust SpeedMPH,PrecipitationIn,Events,Conditions,WindDirDegrees,DateUTC
12:53 AM,26.1,19.9,78,30.21,7.0,South,6.9,-,N/A,,Mostly Cloudy,190,2013-01-08 05:53:00
1:53 AM,28.0,21.0,75,30.21,7.0,SSW,11.5,-,N/A,,Mostly Cloudy,200,2013-01-08 06:53:00
2:53 AM,26.1,21.0,81,30.21,7.0,South,9.2,-,N/A,,Mostly Cloudy,190,2013-01-08 07:53:00
3:53 AM,26.1,19.9,78,30.21,6.0,South,8.1,-,N/A,,Haze,190,2013-01-08 08:53:00
4:53 AM,23.0,19.0,85,30.21,6.0,South,5.8,-,N/A,,Mostly Cloudy,180,2013-01-08 09:53:00
5:53 AM,23.0,19.0,85,30.22,6.0,South,5.8,-,N/A,,Overcast,190,2013-01-08 10:53:00
6:53 AM,21.9,18.0,85,30.23,6.0,South,8.1,-,N/A,,Overcast,180,2013-01-08 11:53:00
7:39 AM,21.2,19.4,93,30.22,3.0,South,8.1,-,N/A,,Overcast,180,2013-01-08 12:39:00
7:53 AM,21.9,19.9,92,30.22,3.0,South,8.1,-,N/A,,Overcast,180,2013-01-08 12:53:00
8:53 AM,25.0,19.9,81,30.27,5.0,SSW,4.6,-,N/A,,Haze,210,2013-01-08 13:53:00
9:53 AM,27.0,21.9,81,30.27,6.0,South,5.8,-,N/A,,Haze,190,2013-01-08 14:53:00
10:53 AM,30.9,23.0,72,30.28,7.0,SW,5.8,-,N/A,,Overcast,220,2013-01-08 15:53:00
11:53 AM,33.1,24.1,70,30.28,8.0,South,8.1,-,N/A,,Overcast,180,2013-01-08 16:53:00
12:53 PM,34.0,25.0,70,30.25,8.0,South,8.1,-,N/A,,Overcast,170,2013-01-08 17:53:00
1:53 PM,36.0,25.0,64,30.25,8.0,South,10.4,-,N/A,,Overcast,180,2013-01-08 18:53:00
2:53 PM,36.0,26.1,67,30.25,7.0,South,5.8,-,N/A,,Overcast,170,2013-01-08 19:53:00
3:53 PM,36.0,26.1,67,30.26,7.0,South,9.2,-,N/A,,Overcast,190,2013-01-08 20:53:00
4:53 PM,35.1,26.1,70,30.26,7.0,SSE,5.8,-,N/A,,Overcast,160,2013-01-08 21:53:00
5:53 PM,32.0,26.1,79,30.27,8.0,SSE,5.8,-,N/A,,Overcast,150,2013-01-08 22:53:00
6:22 PM,33.8,26.6,75,30.23,7.0,SSE,6.9,-,N/A,,Mostly Cloudy,160,2013-01-08 23:22:00
6:53 PM,33.8,24.8,70,30.23,8.0,SSE,8.1,-,N/A,,Mostly Cloudy,160,2013-01-08 23:53:00
7:53 PM,30.9,25.0,79,30.26,8.0,SSE,6.9,-,N/A,,Mostly Cloudy,150,2013-01-09 00:53:00
8:53 PM,30.9,25.0,79,30.25,7.0,SSE,8.1,-,N/A,,Mostly Cloudy,150,2013-01-09 01:53:00
9:53 PM,28.9,25.0,85,30.22,7.0,SSE,5.8,-,N/A,,Scattered Clouds,150,2013-01-09 02:53:00
10:53 PM,27.0,24.1,89,30.22,6.0,SSE,5.8,-,N/A,,Scattered Clouds,160,2013-01-09 03:53:00
11:53 PM,28.9,25.0,85,30.20,6.0,SSE,5.8,-,N/A,,Scattered Clouds,150,2013-01-09 04:53:00